TimeEST,TemperatureF,Dew PointF,Humidity,Sea Level PressureIn,VisibilityMPH,Wind Direction,Wind SpeedMPH,Gust SpeedMPH,PrecipitationIn,Events,Conditions,WindDirDegrees,DateUTC
12:51 AM,21.9,8.1,55,30.38,10.0,WNW,19.6,-,N/A,,Clear,300,2013-01-27 05:51:00
1:51 AM,21.9,8.1,55,30.40,10.0,WNW,16.1,-,N/A,,Clear,290,2013-01-27 06:51:00
2:51 AM,21.9,9.0,58,30.41,10.0,WNW,16.1,-,N/A,,Clear,300,2013-01-27 07:51:00
3:51 AM,21.2,10.4,63,30.42,10.0,WNW,13.8,-,N/A,,Clear,300,2013-01-27 08:51:00
4:51 AM,21.0,10.0,63,30.43,10.0,WNW,10.4,-,N/A,,Clear,300,2013-01-27 09:51:00
5:51 AM,21.0,10.9,65,30.44,10.0,WNW,8.1,-,N/A,,Clear,300,2013-01-27 10:51:00
6:51 AM,21.2,10.4,63,30.44,10.0,WNW,15.0,-,N/A,,Clear,300,2013-01-27 11:51:00
7:51 AM,21.9,10.9,63,30.47,10.0,WNW,12.7,-,N/A,,Clear,300,2013-01-27 12:51:00
8:51 AM,23.0,10.9,60,30.49,10.0,WNW,11.5,-,N/A,,Clear,290,2013-01-27 13:51:00
9:51 AM,25.0,10.9,55,30.51,10.0,WNW,12.7,-,N/A,,Clear,300,2013-01-27 14:51:00
10:51 AM,28.0,10.0,47,30.52,10.0,WNW,11.5,-,N/A,,Clear,300,2013-01-27 15:51:00
11:51 AM,30.0,9.0,41,30.49,10.0,NW,11.5,-,N/A,,Clear,310,2013-01-27 16:51:00
12:51 PM,30.9,7.0,37,30.47,10.0,NNW,8.1,-,N/A,,Clear,340,2013-01-27 17:51:00
1:51 PM,32.0,7.0,35,30.46,10.0,NW,9.2,17.3,N/A,,Partly Cloudy,320,2013-01-27 18:51:00
2:51 PM,34.0,9.0,35,30.46,10.0,NW,9.2,-,N/A,,Scattered Clouds,310,2013-01-27 19:51:00
3:51 PM,34.0,8.1,34,30.46,10.0,NNW,6.9,-,N/A,,Scattered Clouds,340,2013-01-27 20:51:00
4:51 PM,34.0,7.0,32,30.48,10.0,WNW,12.7,-,N/A,,Mostly Cloudy,290,2013-01-27 21:51:00
5:51 PM,34.0,8.1,34,30.49,10.0,WNW,9.2,-,N/A,,Mostly Cloudy,300,2013-01-27 22:51:00
6:51 PM,33.1,8.1,35,30.50,10.0,NW,11.5,-,N/A,,Mostly Cloudy,310,2013-01-27 23:51:00
7:51 PM,33.1,10.0,38,30.49,10.0,NW,9.2,-,N/A,,Mostly Cloudy,310,2013-01-28 00:51:00
8:51 PM,33.1,12.9,43,30.49,10.0,NW,9.2,-,N/A,,Scattered Clouds,320,2013-01-28 01:51:00
9:51 PM,32.0,12.0,44,30.50,10.0,NW,8.1,-,N/A,,Partly Cloudy,310,2013-01-28 02:51:00
10:51 PM,32.0,10.9,42,30.48,10.0,WNW,5.8,-,N/A,,Partly Cloudy,300,2013-01-28 03:51:00
11:51 PM,30.9,10.0,42,30.49,10.0,WNW,5.8,-,N/A,,Partly Cloudy,300,2013-01-28 04:51:00